[[{"header":{"parameterUnit":"m.s-1","parameterCategory":1,"la1":30.2991,"la2":30.254,"lo1":-89.0895,"lo2":-89.0444,"dy":0.0017,"dx":0.0017,"nx":28,"ny":28,"refTime":"2025-05-28T21:00:00:Z","depth":0,"parameterNumber":2,"parameterNumberName":"U-component_of_WINDS"},"data":[0,0,0,0,0,0,0,0,0,0,0,0,0,0,0,0,0,0,0,0,0,0,0,0,0,0,0,0,0,0,0,0,0,0,0,0,0,0,0,0,0,0,0,0,0,0,0,0,0,0,0,0,0,0,0,0,0,0,-2.9293,-2.9291,0,-2.9134,-2.9132,-2.9131,-2.8993,-2.8992,-2.899,-2.8989,-2.8817,-2.8814,-2.8811,0,0,0,0,0,0,0,0,0,0,0,0,0,-2.9465,-2.9462,-2.9293,-2.9291,-2.9289,-2.9135,-2.9132,-2.913,-2.8993,-2.8991,-2.899,-2.8988,-2.8818,-2.8814,-2.881,0,0,0,0,0,0,0,0,0,0,0,0,0,-2.9357,-2.9462,-2.9293,-2.9202,-2.9192,-2.9135,-2.9132,-2.913,-2.8994,-2.8991,-2.8989,-2.8987,-2.8819,-2.8814,-2.881,-2.8827,0,0,-2.8795,-2.8793,0,0,0,0,0,0,0,0,-2.9363,-2.935,-2.9218,-2.9208,-2.9197,-2.9081,-2.913,-2.9028,-2.8994,-2.9069,-2.8989,-2.8986,-2.8906,-2.8894,-2.8869,-2.8819,-2.8811,-2.8795,-2.8792,-2.879,-2.8789,0,0,0,0,0,0,0,-2.9371,-2.9356,-2.923,-2.9216,-2.9203,-2.9165,-2.9147,-2.911,-2.9002,-2.9062,-2.9052,-2.9036,-2.89,-2.8874,-2.8864,-2.8809,-2.8795,-2.8791,-2.8788,-2.8786,-2.8757,-2.8759,0,0,0,0,0,0,-2.9394,-2.9364,-2.9235,-2.9225,-2.9276,-2.9164,-2.9144,-2.9121,-2.9002,-2.8982,-2.9038,-2.903,-2.8883,-2.887,-2.8857,-2.8866,-2.879,-2.8786,-2.8783,-2.8755,-2.8758,-2.876,0,0,0,0,0,0,-2.9398,-2.9383,-2.9241,-2.9291,-2.927,-2.9164,-2.9138,-2.9119,-2.9093,-2.8984,-2.8963,-2.9032,-2.8881,-2.8864,-2.8835,-2.8858,-2.8784,-2.8779,-2.8753,-2.8756,-2.8759,-2.8886,0,0,0,0,0,0,-2.9403,-2.9386,-2.9395,-2.9293,-2.9268,-2.9226,-2.914,-2.9117,-2.9086,-2.9074,-2.8972,-2.8953,-2.8878,-2.8842,-2.883,-2.885,-2.8776,-2.875,-2.8754,-2.8758,-2.8879,-2.8893,-2.8905,0,0,0,0,0,-2.941,-2.9436,-2.9396,-2.9381,-2.9277,-2.9227,-2.9213,-2.9128,-2.9089,-2.9094,-2.9023,-2.8956,-2.8858,-2.8841,-2.8825,-2.8845,-2.8748,-2.8753,-2.8758,-2.8873,-2.889,-2.8905,0,0,0,0,0,0,-2.9541,-2.9421,-2.9375,-2.9369,-2.931,-2.9205,-2.9209,-2.915,-2.9098,-2.9088,-2.8982,-2.896,-2.8941,-2.8889,-2.8873,-2.8851,-2.8794,-2.8796,-2.8887,-2.8902,-2.8915,-2.8927,-2.8772,0,0,0,0,0,-2.9569,-2.9542,-2.9437,-2.9442,-2.9415,-2.9317,-2.9292,-2.9232,-2.9165,-2.9138,-2.9065,-2.8999,-2.8952,-2.8924,-2.8876,-2.887,-2.8843,-2.8875,-2.8888,-2.89,-2.8902,-2.889,-2.8902,-2.8775,-2.8775,-2.8775,0,0,-2.9627,-2.9558,-2.9547,-2.9466,-2.9413,-2.9383,-2.9297,-2.927,-2.9245,-2.9133,-2.9101,-2.9045,-2.8963,-2.8946,-2.8934,-2.8902,-2.8931,-2.8905,-2.8915,-2.8911,-2.8896,-2.8908,-2.8919,-2.8779,-2.8778,-2.8778,0,0,-2.9718,-2.9664,-2.9661,-2.9609,-2.953,-2.9465,-2.9464,-2.9366,-2.9325,-2.9292,-2.9206,-2.9172,-2.9096,-2.904,-2.9002,-2.9067,-2.9002,-2.9053,-2.9121,-2.911,-2.912,-2.9129,-2.9148,-2.9157,-2.9056,-2.9057,-2.9057,0,-2.9799,-2.9755,-2.9666,-2.9644,-2.9608,-2.9507,-2.9499,-2.9452,-2.936,-2.9336,-2.9302,-2.9201,-2.914,-2.9105,-2.9121,-2.9094,-2.9086,-2.9065,-2.9127,-2.9134,-2.914,-2.9158,-2.9166,-2.9063,-2.9063,-2.9062,-2.9061,0,-2.9857,-2.9826,-2.9832,-2.9749,-2.9714,-2.9699,-2.9604,-2.9578,-2.952,-2.9456,-2.942,-2.9342,-2.9274,-2.9261,-2.9204,-2.9217,-2.9199,-2.9148,-2.9087,-2.9161,-2.9175,-2.9181,-2.9073,-2.9071,-2.9069,-2.9067,0,0,-3.0027,-2.9893,-2.9896,-2.9855,-2.9759,-2.9732,-2.9709,-2.9645,-2.9624,-2.9562,-2.9538,-2.9474,-2.9424,-2.9381,-2.9315,-2.9306,-2.9357,-2.9254,-2.925,-2.9274,-2.9362,-2.9401,-2.9411,-2.9314,-2.9315,-2.9315,-2.9368,0,-3.01,-3.006,-2.9978,-2.9961,-2.993,-2.983,-2.981,-2.9746,-2.9685,-2.9645,-2.9575,-2.953,-2.947,-2.9443,-2.943,-2.9355,-2.9373,-2.9349,-2.9285,-2.9284,-2.9309,-2.9418,-2.946,-2.9514,-2.9373,-2.9374,-2.9375,0,-3.0182,-3.0128,-3.011,-3.0012,-2.9995,-2.998,-2.9912,-2.9877,-2.9799,-2.9755,-2.9705,-2.9632,-2.9598,-2.9543,-2.9491,-2.9477,-2.9444,-2.9403,-2.9402,-2.9393,-2.9334,-2.9409,-2.9529,-2.9537,-2.9383,-2.9383,-2.9382,0,-3.0306,-3.0228,-3.0206,-3.0174,-3.006,-3.0051,-3.0002,-2.9922,-2.9888,-2.9826,-2.9802,-2.9737,-2.97,-2.9649,-2.9558,-2.9527,-2.9514,-2.9453,-2.9472,-2.9474,-2.9474,-2.9475,-2.9589,-2.9456,-2.9456,-2.9456,-2.9456,0,-3.0396,-3.0388,-3.026,-3.0247,-3.0232,-3.0135,-3.0122,-3.0063,-2.9992,-2.9961,-2.987,-2.9842,-2.9724,-2.968,-2.9608,-2.9574,-2.9558,-2.9518,-2.9498,-2.9525,-2.953,-2.9503,-2.9496,-2.9458,-2.9458,-2.9457,-2.9457,0,-3.0532,-3.0447,-3.0416,-3.031,-3.0283,-3.0277,-3.0183,-3.0163,-3.0095,-3.0057,-3.0042,-2.9934,-2.9877,-2.9782,-2.9697,-2.9648,-2.9626,-2.9594,-2.9654,-2.9642,-2.9666,-2.9664,-2.9765,-2.9771,-2.9637,-2.9638,-2.964,0,-3.0595,-3.0587,-3.048,-3.0454,-3.041,-3.0369,-3.0333,-3.0235,-3.02,-3.0109,-3.0098,-3.0035,-2.998,-2.9893,-2.9803,-2.9736,-2.9701,-2.9741,-2.969,-2.9716,-2.9698,-2.9699,-2.9696,-2.9752,-2.9754,-2.9756,-2.9757,0,-3.0715,-3.0673,-3.0627,-3.0565,-3.0526,-3.0471,-3.0412,-3.0394,-3.0281,-3.0245,-3.0188,-3.0145,-3.0058,-2.9994,-2.9914,-2.9857,-2.9786,-2.9774,-2.9774,-2.9801,-2.9835,-2.9814,-2.9683,-2.9772,-2.9771,-2.9769,-2.9769,-2.9768,-3.0815,-3.0802,-3.0724,-3.0674,-3.0619,-3.0564,-3.054,-3.0469,-3.042,-3.0345,-3.0287,-3.0233,-3.0148,-3.0034,-2.9981,-2.9932,-2.9901,-2.9902,-2.9902,-2.9904,-2.9913,-2.9844,-2.9917,-2.9917,-2.9916,-2.9916,-2.9915,0,-3.0928,-3.0873,-3.0828,-3.0749,-3.0708,-3.0648,-3.0577,-3.0546,-3.0501,-3.0431,-3.0378,-3.0308,-3.0245,-3.015,-3.0077,-3.0057,-3.0022,-3.0041,-3.004,-3.0027,-2.9947,-2.9953,-3.007,-3.007,-3.007,-3.007,-3.007,-3.007,-3.0983,-3.0956,-3.0903,-3.0845,-3.0788,-3.0737,-3.0701,-3.0648,-3.0591,-3.052,-3.0468,-3.0407,-3.0324,-3.0244,-3.0181,-3.0154,-3.013,-3.0159,-3.0121,-3.0048,-3.0034,-3.002,-3.0025,-3.0155,-3.0155,-3.0205,-3.0206,-3.0206]},{"header":{"parameterUnit":"m.s-1","parameterCategory":1,"la1":30.2991,"la2":30.254,"lo1":-89.0895,"lo2":-89.0444,"dy":0.0017,"dx":0.0017,"nx":28,"ny":28,"refTime":"2025-05-28T21:00:00:Z","depth":0,"parameterNumber":3,"parameterNumberName":"V-component_of_WINDS"},"data":[0,0,0,0,0,0,0,0,0,0,0,0,0,0,0,0,0,0,0,0,0,0,0,0,0,0,0,0,0,0,0,0,0,0,0,0,0,0,0,0,0,0,0,0,0,0,0,0,0,0,0,0,0,0,0,0,0,0,-6.2763,-6.2764,0,-6.286,-6.2861,-6.2862,-6.2789,-6.2786,-6.2783,-6.278,-6.2875,-6.288,-6.2885,0,0,0,0,0,0,0,0,0,0,0,0,0,-6.2507,-6.2512,-6.2763,-6.2764,-6.2765,-6.286,-6.2861,-6.2863,-6.279,-6.2786,-6.2782,-6.2778,-6.2873,-6.2879,-6.2886,0,0,0,0,0,0,0,0,0,0,0,0,0,-6.2612,-6.2513,-6.2763,-6.274,-6.2739,-6.286,-6.2861,-6.2863,-6.279,-6.2786,-6.2781,-6.2776,-6.2871,-6.2879,-6.2887,-6.3033,0,0,-6.2912,-6.2916,0,0,0,0,0,0,0,0,-6.2606,-6.2622,-6.2742,-6.2742,-6.2741,-6.2808,-6.2806,-6.292,-6.2792,-6.2771,-6.278,-6.2774,-6.2856,-6.2865,-6.2894,-6.3038,-6.3042,-6.2913,-6.2918,-6.2921,-6.2924,0,0,0,0,0,0,0,-6.2599,-6.2617,-6.2801,-6.2744,-6.2744,-6.2723,-6.2733,-6.2827,-6.2839,-6.2772,-6.2767,-6.278,-6.2855,-6.2886,-6.2895,-6.3043,-6.2913,-6.292,-6.2925,-6.2928,-6.3307,-6.3312,0,0,0,0,0,0,-6.2595,-6.2611,-6.2798,-6.2804,-6.2661,-6.2732,-6.2743,-6.2791,-6.2838,-6.284,-6.2784,-6.2776,-6.2874,-6.2886,-6.2898,-6.3069,-6.2921,-6.2929,-6.2934,-6.3302,-6.3308,-6.3313,0,0,0,0,0,0,-6.259,-6.2612,-6.2794,-6.2707,-6.2728,-6.2741,-6.2796,-6.2796,-6.2827,-6.2847,-6.2848,-6.2814,-6.2871,-6.2887,-6.2999,-6.3072,-6.2933,-6.294,-6.3296,-6.3303,-6.3311,-6.3414,0,0,0,0,0,0,-6.2583,-6.2611,-6.2668,-6.2708,-6.2733,-6.2896,-6.2801,-6.2801,-6.2842,-6.2832,-6.2875,-6.2878,-6.2868,-6.2987,-6.3008,-6.308,-6.2947,-6.3289,-6.3299,-6.3308,-6.3404,-6.3425,-6.3442,0,0,0,0,0,-6.2574,-6.2694,-6.2672,-6.2695,-6.2806,-6.29,-6.2914,-6.2903,-6.2848,-6.2904,-6.2916,-6.2876,-6.3061,-6.3,-6.3022,-6.3098,-6.3284,-6.3296,-6.3307,-6.3396,-6.3421,-6.3441,0,0,0,0,0,0,-6.2661,-6.2699,-6.2675,-6.2812,-6.2854,-6.2888,-6.2959,-6.293,-6.2987,-6.2976,-6.2957,-6.2967,-6.3085,-6.3103,-6.3034,-6.324,-6.3164,-6.318,-6.3223,-6.3247,-6.3265,-6.3257,-6.2953,0,0,0,0,0,-6.2696,-6.2772,-6.28,-6.2918,-6.2941,-6.2946,-6.2987,-6.2974,-6.3016,-6.3033,-6.3054,-6.3094,-6.3161,-6.3205,-6.3268,-6.3407,-6.3413,-6.347,-6.3489,-6.3504,-6.3518,-6.3588,-6.3613,-6.3351,-6.3351,-6.3351,0,0,-6.277,-6.28,-6.2849,-6.2936,-6.2967,-6.3043,-6.2962,-6.3047,-6.3102,-6.3046,-6.3152,-6.3169,-6.3213,-6.3338,-6.3394,-6.3357,-6.3591,-6.3519,-6.3531,-6.3536,-6.3603,-6.3627,-6.3649,-6.3359,-6.3357,-6.3356,0,0,-6.2942,-6.2974,-6.3074,-6.3106,-6.3154,-6.3157,-6.3181,-6.3219,-6.3228,-6.3336,-6.3294,-6.3358,-6.3475,-6.3506,-6.3538,-6.3719,-6.3682,-6.374,-6.3837,-6.3906,-6.3926,-6.3944,-6.4005,-6.4028,-6.3754,-6.3754,-6.3754,0,-6.3027,-6.3142,-6.3129,-6.3216,-6.3254,-6.3207,-6.3306,-6.3338,-6.3403,-6.3429,-6.3387,-6.3529,-6.3556,-6.3686,-6.373,-6.3758,-6.3782,-6.3734,-6.3925,-6.3943,-6.3959,-6.4017,-6.404,-6.3761,-6.376,-6.3759,-6.3759,0,-6.3241,-6.3321,-6.3396,-6.3461,-6.3507,-6.36,-6.3598,-6.3647,-6.3629,-6.3635,-6.3743,-6.3773,-6.3839,-6.387,-6.3854,-6.3997,-6.3971,-6.3928,-6.385,-6.3991,-6.4044,-6.4067,-6.377,-6.3767,-6.3766,-6.3764,0,0,-6.3472,-6.3526,-6.3554,-6.3581,-6.3629,-6.3689,-6.3778,-6.3844,-6.3884,-6.393,-6.4001,-6.41,-6.4058,-6.4094,-6.4081,-6.4142,-6.4278,-6.409,-6.409,-6.4121,-6.4433,-6.4463,-6.449,-6.4256,-6.426,-6.4263,-6.4428,0,-6.3643,-6.38,-6.3789,-6.3935,-6.4006,-6.3962,-6.4039,-6.4075,-6.4083,-6.4142,-6.415,-6.4219,-6.4161,-6.4181,-6.424,-6.425,-6.434,-6.4238,-6.4318,-6.4322,-6.4306,-6.4518,-6.4552,-6.4706,-6.4449,-6.4453,-6.4455,0,-6.3865,-6.3918,-6.4072,-6.4106,-6.4135,-6.4205,-6.4262,-6.4321,-6.4359,-6.436,-6.4399,-6.4375,-6.4461,-6.4384,-6.45,-6.443,-6.4463,-6.4472,-6.4478,-6.4482,-6.4395,-6.4525,-6.4755,-6.4777,-6.4489,-6.4486,-6.4484,0,-6.4013,-6.4123,-6.4228,-6.4253,-6.4297,-6.4346,-6.4366,-6.44,-6.4439,-6.4488,-6.4512,-6.4571,-6.4603,-6.4648,-6.4639,-6.4584,-6.4756,-6.4679,-6.4756,-6.4756,-6.4792,-6.479,-6.5027,-6.4819,-6.4818,-6.4818,-6.4818,0,-6.4204,-6.4298,-6.4295,-6.4359,-6.4462,-6.4448,-6.455,-6.4564,-6.4594,-6.4658,-6.4624,-6.4684,-6.467,-6.4729,-6.4722,-6.4817,-6.4833,-6.4833,-6.483,-6.4835,-6.4834,-6.4853,-6.4841,-6.4824,-6.4823,-6.4822,-6.4821,0,-6.4386,-6.4388,-6.4498,-6.453,-6.454,-6.4614,-6.464,-6.4699,-6.4703,-6.4784,-6.4802,-6.4808,-6.4875,-6.4871,-6.4948,-6.4943,-6.5059,-6.5045,-6.5046,-6.5042,-6.5118,-6.5109,-6.5373,-6.5405,-6.518,-6.5182,-6.5184,0,-6.4506,-6.4578,-6.4617,-6.4657,-6.468,-6.4747,-6.4786,-6.4774,-6.4815,-6.4863,-6.4915,-6.498,-6.503,-6.5139,-6.5149,-6.5206,-6.519,-6.5279,-6.5199,-6.52,-6.5187,-6.5182,-6.5187,-6.5294,-6.5296,-6.5299,-6.53,0,-6.4719,-6.4715,-6.4774,-6.4832,-6.488,-6.4925,-6.4966,-6.5001,-6.4992,-6.504,-6.5109,-6.5148,-6.5225,-6.5288,-6.5342,-6.5359,-6.5327,-6.5326,-6.5346,-6.535,-6.5346,-6.5345,-6.5085,-6.5319,-6.5317,-6.5316,-6.5315,-6.5314,-6.4871,-6.4931,-6.4966,-6.5031,-6.5061,-6.51,-6.5155,-6.5166,-6.5224,-6.5286,-6.5275,-6.5351,-6.5384,-6.5453,-6.5476,-6.5533,-6.5501,-6.5531,-6.5538,-6.5545,-6.5551,-6.534,-6.5543,-6.5542,-6.5542,-6.5542,-6.5541,0,-6.5078,-6.5098,-6.5158,-6.5216,-6.5267,-6.5234,-6.5277,-6.532,-6.5388,-6.5422,-6.5472,-6.5549,-6.5609,-6.5623,-6.568,-6.5723,-6.5709,-6.5738,-6.5732,-6.5736,-6.5579,-6.5554,-6.5747,-6.5747,-6.5747,-6.5747,-6.5747,-6.5747,-6.5191,-6.5289,-6.529,-6.5401,-6.542,-6.5494,-6.5521,-6.5555,-6.5582,-6.5669,-6.5719,-6.5728,-6.5753,-6.5811,-6.5863,-6.5866,-6.5886,-6.592,-6.5916,-6.5769,-6.5748,-6.5728,-6.5704,-6.5926,-6.5926,-6.6068,-6.6069,-6.607]}]]